FLOCK 3P'-4 (43122 NORAD) Tracking and Keplerian Element Data

This shows tracking and keplerian element data for the satellite.

Feedback or suggestion? Click here.




ElementValue
Catalog43122
NameFLOCK 3P'-4
Epoch Orbit30118
Epoch Day162.12194046
Epoch Year2023
RAAN239.8375
Inclination97.3321
Eccentricity0.0010418
Argument of Perigee212.4614
Mean Anonmoly147.6003
Mean Motion15.59483662
Decay Rate0.0024306
L11 43122U 18004M 23162.12194046 .00243060 00000+0 29785-2 0 9993
L22 43122 97.3321 239.8375 0010418 212.4614 147.6003 15.59483662301183



Live tracking and technical data element details for FLOCK 3P'-4 (NORAD 43122). FLOCK 3P'-4 can be tracked NOW for your location showing map with azimuth and elevation plus other details from your city location.







IsCatalogInMostPopularTable: catalog: 43122, numindb: 648
Update: records affected: 1



GetName: 43122 FLOCK 3P'-4

Hit Count: updated at: Fri, 14 Jun 2024 19:35:32 GMT